SCP
0 0 0 0 0 0 0 0 0 0 0 0 0 0 0 0 0 0 0 0 0 0 0 0 0 0 0 0 0 0 0 0 0 0 0 0 0 0 0 0 0 0 0 0 0 0 0 0 0 0 0 0 0 0
0 0 0 0 0 0 0 0 0 0 0 0 0 0 0 0 0 0 0 0 0 0 0 0 0 -0 -0 -0 -0 0 0 0 0 0 0 0 0 0 0 0 0 0 0 0 0 0 0 0 0 0 0 0 0 0
0 0 0 0 0 0 0 0 0 0 0 0 0 0 0 0 0 0 0 0 0 0 0 0 0 0 0 0 0 0 0 0 0 0 0 0 0 0 0 0 0 0 0 0 0 0 0 0 0 0 0 0 0 0
0 0 0 0 0 0 0 0 0 0 0 0 0 0 0 0 0 0 0 0 0 0 0 0 0 0 0 0 0 0 -0 0 0 0 0 0 0 0 0 0 0 0 0 0 0 0 0 0 0 0 0 0 0 0
0 0 0 0 0 0 0 0 0 0 0 0 0 0 0 0 0 0 0 0 0 0 0 0 0 0 0 0 0 0 0 0 0 0 0 0 0 0 0 0 0 0 0 0 0 0 0 0 0 0 0 0 0 0
0 0 0 0 0 0 0 0 0 0 0 0 0 0 0 0 0 0 0 0 0 0 0 0 0 0 0 0 0 0 0 0 0 0 0 0 0 0 0 0 0 0 0 0 0 0 0 0 0 0 0 0 0 0
0 0 0 0 0 0 0 0 0 0 0 0 0 0 0 0 0 0 0 0 0 0 0 0 0 0 0 0 0 0 0 0 0 -0 0 0 -0 -0 0 0 0 0 0 0 0 0 0 0 0 0 0 0 0 0
0 0 0 0 0 0 0 0 0 0 0 0 0 0 0 0 0 0 0 0 0 0 0 0 0 0 0 0 0 0 0 0 0 0 0 0 -0 -0 -0 -0 -0 -0 0 0 0 0 0 0 0 0 0 0 0 0
0 0 0 0 0 0 0 0 0 0 0 0 0 0 0 0 0 0 0 0 0 0 0 0 0 0 0 0 -0 0 0 0 0 -0 -0 0 0 -0 0 -0 -0 -0 -0 -0 0 0 0 0 0 0 0 0 0 0
0 0 0 0 0 0 0 0 0 0 0 0 0 0 0 0 0 0 0 0 0 0 0 0 0 0 0 0 0 0 0 -0 -0 0 0 0 0 -0 -0 -0 -0 -0 -0 -0 0 -0 -0 0 0 0 0 0 0 0
0 0 0 0 0 0 0 0 0 0 0 0 0 0 0 0 0 0 0 0 0 0 0 0 0 0 0 0 0 0 0 0 0 0 -0 0 0 0 0 0 -0 -0 -0 -0 0 0 -0 0 0 0 0 0 0 0
0 0 0 0 0 0 0 0 0 0 0 0 0 0 0 0 0 0 0 0 0 0 0 0 0 0 0 0 0 0 0 0 0 0 0 0 0 -0 0 0 0 -0 -0 -0 -0 -0 0 0 0 0 0 0 0 0
0 0 0 0 0 0 0 0 0 0 0 0 0 0 0 0 0 0 0 0 0 0 0 0 0 0 0 0 0 0 0 0 0 0 0 0 0 -0 -0 -0 -0 0 -0 0 -0 -0 -0 -0 -0 0 0 0 0 0
0 0 0 0 0 0 0 0 0 0 0 0 0 0 0 0 0 0 0 0 0 0 0 0 0 0 0 0 0 0 0 0 0 0 0 0 0 0 0 -0 -0 -0 -0 -0 0 -0 0 -0 -0 -0 0 0 0 0
0 0 0 0 0 0 0 0 0 0 0 0 0 0 0 0 0 0 0 0 0 0 0 0 0 0 0 0 0 0 0 0 0 0 0 0 0 0 0 0 0 -0 -0 -0 -0 -0 -0 -0 0 0 0 0 0 0
0 0 0 0 0 0 0 0 0 0 0 0 0 0 0 0 0 0 0 0 0 0 0 0 0 0 0 0 0 0 0 0 0 0 0 0 0 0 0 0 0 0 -0 -0 -0 -0 -0 -0 -0 -0 -0 -0 -0 -0
0 0 0 0 0 0 0 0 0 0 0 0 0 0 0 0 0 0 0 0 0 0 0 0 0 0 0 0 0 0 0 0 0 0 0 0 0 0 0 0 0 0 0 -0 -0 -0 -0 -0 -0 -0 -0 -0 -0 -0
0 0 0 0 0 0 0 0 0 0 0 0 0 0 0 0 0 0 0 0 0 0 0 0 0 0 0 0 0 0 0 0 0 0 0 0 0 0 0 0 0 0 0 0 -0 -0 -0 -0 -0 -0 -0 -0 -0 -0
0 0 0 0 0 0 0 0 0 0 0 0 0 0 0 0 0 0 0 0 0 0 0 0 0 0 0 0 0 0 0 0 0 0 0 0 0 0 0 0 0 0 0 0 0 0 -0 -0 -0 0 -0 -0 0 0
0 0 0 0 0 0 0 0 0 0 0 0 0 0 0 0 0 0 0 0 0 0 0 0 0 0 0 0 0 0 0 0 0 0 0 0 0 0 0 0 0 0 0 0 0 0 0 0 0 0 -0 0 -0 0
0 0 0 0 0 0 0 0 0 0 0 0 0 0 0 0 0 0 0 0 0 0 0 0 0 0 0 0 0 0 0 0 0 0 0 0 0 0 0 0 0 0 0 0 0 0 0 0 0 0 0 0 0 0
0 0 0 0 0 0 0 0 0 -0 0 0 0 0 0 0 0 0 0 0 0 0 0 0 0 0 0 0 0 0 0 0 0 0 0 0 0 0 0 0 0 0 0 0 0 0 0 0 0 0 0 0 0 0
0 0 0 0 0 0 0 0 0 0 0 0 0 0 0 0 0 0 0 0 0 0 0 0 0 0 0 0 0 0 0 0 0 0 0 0 0 0 0 0 0 0 0 0 0 0 0 0 0 0 0 0 0 0
0 0 0 0 0 0 0 0 0 -0 0 0 0 0 0 0 0 0 0 0 0 0 0 0 0 0 0 0 0 0 0 0 0 0 0 0 0 0 0 0 0 0 0 0 0 0 0 0 0 0 0 0 0 0
0 0 0 0 0 0 0 0 0 0 0 0 -0 0 0 0 0 0 0 0 0 0 0 0 0 0 0 0 0 0 0 0 0 0 0 0 0 0 0 0 0 0 0 0 0 0 0 0 0 0 0 0 0 0
0 0 0 0 0 0 0 0 0 0 -0 0 0 0 0 0 0 0 0 0 0 0 0 0 0 0 0 0 0 0 0 0 0 0 0 0 0 0 0 0 0 0 0 0 0 0 0 0 0 0 0 0 0 0
0 0 0 0 0 0 0 0 0 -0 -0 0 0 -0 0 0 0 0 0 0 0 0 0 0 0 0 0 0 0 0 0 0 0 0 0 0 0 0 0 0 0 0 0 0 0 0 0 0 0 0 0 0 0 0
0 0 0 0 0 0 0 0 0 -0 -0 -0 -0 -0 0 0 0 0 0 0 0 0 0 0 0 0 0 0 0 0 0 0 0 0 0 0 0 0 0 0 0 0 0 0 0 0 0 0 0 0 0 0 0 0
0 0 0 0 0 0 0 0 0 -0 -0 -0 -0 0 0 0 0 0 0 0 0 0 0 0 0 0 0 0 0 0 0 0 0 0 0 0 0 0 0 0 0 0 0 0 0 0 0 0 0 0 0 0 0 0
0 0 0 0 0 0 0 -0 -0 -0 0 0 0 0 -0 0 0 0 0 0 0 0 0 0 0 0 0 0 0 0 0 0 0 0 0 0 0 0 0 0 0 0 0 0 0 0 0 0 0 0 0 0 0 0
0 0 0 0 0 0 -0 0 0 0 0 0 0 0 0 0 0 0 0 0 0 0 0 0 0 0 0 0 0 0 0 0 0 0 0 0 0 0 0 0 0 0 0 0 0 0 0 0 0 0 0 0 0 0
0 0 0 0 0 0 0 0 -0 0 0 0 0 -0 0 0 0 0 0 0 0 0 0 0 0 0 0 0 0 0 0 0 0 0 0 0 0 0 0 0 0 0 0 0 0 0 0 0 0 0 0 0 0 0
0 0 0 -0 0 0 0 0 -0 -0 0 0 0 -0 -0 -0 0 0 0 0 0 0 0 0 0 0 0 0 0 0 0 0 0 0 0 0 0 0 0 0 0 0 0 0 0 0 0 0 0 0 0 0 0 0
Wind_Speed_500mb
42 42 39 42 43 37 36 37 38 36 30 26 20 15 14 18 17 18 15 15 7 6 6 2 0 3 2 8 8 6 6 7 9 8 6 6 7 6 6 8 4 12 14 15 20 18 19 29 9 7 10 18 30 31
40 39 37 38 41 35 34 36 36 33 27 23 21 17 11 15 16 18 12 17 9 2 6 3 6 8 4 8 14 10 8 8 3 7 2 5 7 4 8 8 10 12 8 13 9 9 10 17 20 7 11 17 25 34
44 38 35 34 36 35 33 33 33 31 26 22 22 20 18 17 15 15 10 23 8 3 5 2 5 4 4 8 6 11 8 5 4 3 11 6 4 8 8 7 9 7 6 12 9 14 6 5 6 12 19 21 26 29
50 39 34 32 33 34 33 33 32 28 24 21 22 21 21 19 19 14 7 19 13 4 9 12 6 7 8 4 4 6 8 8 4 4 5 4 6 4 6 11 13 14 6 10 19 19 16 8 5 21 23 21 29 29
47 45 35 31 29 32 34 32 29 25 22 19 20 22 23 26 29 15 5 12 18 4 8 10 6 12 12 2 5 11 7 5 6 3 5 5 6 8 13 11 15 15 16 16 15 13 12 19 20 31 31 27 30 34
42 45 39 32 29 28 31 32 30 25 20 15 19 22 24 26 29 4 2 9 21 8 3 4 6 11 14 6 8 10 8 3 5 7 7 3 2 8 8 11 9 12 17 26 30 28 28 36 37 34 24 31 30 31
44 41 43 37 31 29 28 30 32 29 17 20 19 19 20 18 12 5 5 7 19 8 2 2 8 5 5 3 6 8 7 3 6 7 6 9 4 6 7 17 13 19 27 34 37 36 41 34 31 19 28 29 28 26
44 47 38 42 37 32 30 28 31 33 28 21 23 23 20 11 6 9 16 14 12 3 1 3 0 1 9 5 4 2 3 4 6 6 4 10 9 5 7 13 36 42 46 50 52 48 51 44 41 40 31 27 26 24
40 45 43 44 39 37 34 31 28 32 32 25 27 20 6 4 5 13 17 6 5 4 2 2 3 2 2 4 3 2 2 3 3 10 7 13 4 2 21 49 61 64 42 44 41 41 39 43 42 37 32 27 24 22
37 43 47 49 48 41 35 30 23 31 30 18 15 7 5 8 25 8 3 2 3 0 1 3 9 5 7 2 3 1 3 5 4 2 2 3 4 23 40 46 49 60 60 51 55 53 54 53 45 40 34 26 23 17
37 40 44 50 52 42 23 14 21 29 24 8 5 5 15 20 7 2 3 3 1 4 10 4 3 5 9 5 4 1 4 5 3 5 2 3 5 22 24 30 45 68 61 13 41 46 38 38 34 34 32 21 19 13
38 42 44 48 43 23 12 16 24 28 18 14 12 14 10 4 5 6 4 3 5 1 6 4 4 4 10 9 7 11 4 5 5 11 6 1 8 28 20 35 22 51 71 74 61 35 17 10 19 25 23 18 21 21
39 42 44 42 33 20 19 30 36 35 31 11 3 4 6 7 5 5 6 3 5 12 12 10 7 9 9 12 7 9 10 2 3 6 2 5 18 26 26 19 27 20 40 53 54 59 58 55 42 40 36 24 30 29
39 43 43 42 34 26 35 45 42 27 10 5 7 6 9 7 9 7 1 5 8 5 8 9 5 8 4 9 1 6 3 6 4 3 4 10 17 23 23 25 32 34 25 24 41 46 43 48 61 57 48 45 50 50
38 41 42 30 23 32 47 44 36 13 7 8 8 8 13 15 11 14 7 6 8 10 11 7 7 8 6 4 5 2 5 4 2 3 2 13 8 15 21 23 25 28 28 29 21 28 36 29 43 40 40 28 45 47
35 38 30 37 40 44 38 36 20 7 7 8 12 11 17 13 15 5 12 14 14 16 9 6 4 5 7 3 7 5 2 5 6 5 8 10 3 3 10 16 21 24 28 27 25 21 15 24 25 23 33 39 25 32
32 22 30 38 41 44 29 21 9 7 8 9 13 23 28 24 19 14 8 8 21 16 5 4 6 2 3 6 3 6 6 6 12 11 10 5 2 2 1 6 12 15 21 26 26 19 18 10 15 19 25 17 17 22
25 21 31 40 42 32 19 6 6 8 13 19 14 14 19 21 19 14 9 16 18 13 7 2 4 8 5 5 4 6 9 12 10 10 6 4 8 8 4 0 5 10 14 20 20 18 15 10 8 11 12 10 11 10
25 27 34 35 29 17 7 6 8 10 17 17 22 22 20 20 14 14 10 16 17 9 6 7 6 6 5 5 5 13 13 13 15 14 10 10 10 8 8 4 0 5 10 15 17 16 12 7 5 4 5 4 4 6
30 32 33 25 27 7 7 8 10 12 12 6 12 15 13 13 9 8 11 16 18 10 10 7 7 4 5 7 12 18 18 15 13 11 9 7 5 7 8 4 3 6 12 17 15 17 8 5 6 3 3 6 8 7
27 22 25 32 23 18 11 8 11 14 15 12 11 9 9 10 14 13 13 17 19 11 12 13 8 14 13 17 19 21 21 19 12 4 5 2 6 6 6 4 3 7 13 15 13 8 11 10 9 7 6 5 6 6
24 29 30 27 10 8 13 16 15 15 11 18 13 11 12 11 10 8 10 17 11 22 15 14 20 25 24 25 25 26 21 19 11 6 9 7 8 8 6 4 3 7 12 12 7 3 4 6 7 8 8 7 5 4
26 27 12 10 11 9 12 14 14 12 9 5 4 6 6 5 3 8 8 11 9 10 14 19 28 33 26 27 27 26 23 17 10 6 5 8 8 8 7 6 4 5 10 7 2 1 1 4 7 7 9 10 10 10
22 9 7 9 18 8 7 9 12 10 7 9 6 6 2 3 6 8 6 6 8 15 21 29 36 34 26 25 25 22 20 17 11 9 10 9 8 9 9 7 5 5 3 1 3 1 2 5 7 8 9 10 11 11
8 11 10 14 11 9 7 9 15 13 14 14 8 9 5 6 5 6 4 2 11 20 28 34 34 33 26 26 25 23 23 20 15 14 14 9 9 11 11 9 7 5 4 4 3 1 1 2 5 6 8 10 13 14
7 15 18 14 11 10 7 5 10 9 12 6 9 4 7 6 6 5 3 5 13 24 32 38 37 32 26 20 21 23 24 23 19 16 13 12 12 12 11 10 10 8 8 9 7 4 4 5 7 8 10 13 17 17
9 14 13 15 7 4 1 9 24 18 13 7 5 9 6 6 4 1 1 4 9 17 31 34 31 25 18 18 17 18 19 21 19 12 12 11 12 11 10 11 12 10 11 9 8 6 7 10 11 11 13 15 17 21
17 10 14 17 11 11 4 3 10 10 9 7 4 5 4 3 5 4 2 5 14 22 27 28 25 20 16 18 21 22 23 22 20 15 13 13 14 11 9 8 13 21 13 10 7 6 7 9 9 11 13 18 23 27
14 17 18 15 8 13 18 17 14 21 12 8 4 5 4 4 3 7 3 12 21 20 29 30 27 25 25 26 26 24 23 22 21 21 17 15 16 15 14 13 13 15 13 9 9 7 9 6 8 12 17 24 28 33
13 23 17 17 11 13 20 29 17 16 22 23 23 22 18 16 14 18 11 20 13 16 23 26 28 30 34 34 29 27 26 22 17 12 13 13 14 15 19 17 17 14 13 11 9 10 11 10 17 22 25 29 33 38
7 20 15 20 14 19 22 24 24 22 27 28 25 22 22 18 14 13 14 17 16 18 21 27 27 28 31 33 32 31 28 26 22 17 11 10 14 18 18 18 17 15 12 10 9 9 11 15 19 25 29 34 38 40
14 20 11 9 11 10 8 6 9 15 18 24 23 16 11 10 10 7 11 18 19 20 24 26 28 27 25 24 25 23 21 20 23 24 19 13 14 16 18 17 16 14 11 9 8 8 12 18 26 31 35 35 37 42
14 16 15 9 11 11 15 12 9 8 15 16 16 17 16 12 5 8 12 16 15 15 19 25 24 19 28 23 21 22 22 23 16 16 20 14 11 17 17 15 14 13 10 7 7 11 17 23 30 33 35 39 42 46
Wind_Direction_500mb
0 0 5 6 5 10 13 16 18 18 26 28 24 27 28 31 39 58 36 42 55 5 65 160 93 357 24 26 40 343 129 352 291 243 229 197 273 140 262 51 251 204 211 205 240 235 228 6 57 344 7 337 331 333
359 359 0 6 5 6 8 11 15 14 13 17 18 19 26 33 33 39 18 7 19 39 12 234 232 248 279 343 357 73 90 114 325 277 342 274 208 191 337 220 176 244 309 344 328 56 55 74 92 52 2 342 334 331
359 357 355 1 2 4 3 5 12 13 9 13 23 31 33 29 36 35 17 16 15 342 153 159 66 329 331 263 256 318 80 83 100 331 333 336 306 315 257 234 325 190 291 270 324 129 44 334 102 31 0 345 341 343
359 355 352 353 357 359 357 358 4 9 14 19 26 29 26 24 10 6 11 12 16 311 295 95 51 29 1 57 174 183 78 79 78 265 269 331 309 6 306 335 291 352 331 281 271 275 311 232 38 347 345 340 342 346
357 356 350 348 349 355 356 351 355 4 14 18 15 16 15 9 1 354 14 15 25 43 341 94 107 31 22 145 129 173 173 11 0 261 248 38 331 284 249 280 261 242 277 270 276 41 326 306 317 322 322 330 332 332
349 356 353 346 342 343 351 351 346 349 358 358 360 358 354 357 357 28 301 342 8 17 261 195 103 41 30 86 125 155 186 262 298 312 349 331 334 308 293 293 336 291 279 278 283 291 285 283 292 299 296 318 323 329
344 349 356 350 339 336 336 345 345 341 326 341 340 338 333 336 359 20 3 322 1 49 323 160 124 19 18 242 167 167 187 212 309 321 284 308 324 274 266 263 305 280 276 276 274 277 275 272 270 270 291 303 315 314
342 347 348 354 345 333 330 328 338 339 330 323 336 328 321 308 315 10 336 344 7 18 31 134 125 79 8 330 179 275 249 242 213 273 242 314 303 285 262 293 315 301 291 279 268 263 263 267 267 269 277 289 302 302
337 340 343 341 342 334 324 322 321 334 335 316 328 328 326 7 343 317 328 4 26 114 299 329 71 55 56 356 10 14 348 295 294 22 21 342 1 302 310 311 301 295 274 269 268 264 262 254 255 253 264 268 278 291
327 328 334 339 334 327 319 315 311 329 335 321 329 350 314 289 328 329 31 19 356 100 108 280 111 109 166 177 190 190 26 12 29 13 283 10 300 266 299 324 356 348 312 280 253 250 247 250 245 245 251 249 263 281
329 332 333 334 333 324 314 324 325 330 334 332 301 273 281 317 349 331 295 275 265 248 190 232 280 102 179 168 133 145 169 180 196 124 282 352 284 341 350 346 12 3 24 285 247 234 238 236 236 240 239 247 258 232
322 326 331 334 341 343 338 340 340 336 322 284 272 281 292 272 256 256 222 185 217 238 199 253 131 184 161 178 156 187 265 190 216 153 232 328 320 350 350 356 19 26 28 35 51 65 91 194 236 226 240 236 180 172
316 322 328 327 330 334 327 326 322 322 325 320 269 249 219 202 284 254 307 108 308 180 198 195 177 184 170 218 205 193 230 98 166 217 4 32 15 359 2 3 17 29 49 40 43 50 51 71 91 99 83 81 139 122
309 315 321 317 306 301 322 331 323 307 300 220 229 252 229 186 234 215 156 335 310 246 186 196 158 227 180 206 271 247 81 258 265 269 53 60 39 20 20 21 22 26 33 60 54 53 53 55 65 69 73 73 77 89
307 313 322 325 313 302 321 324 319 276 231 228 219 242 221 250 264 265 255 213 201 175 168 173 192 236 166 204 222 232 219 261 205 262 107 93 54 32 31 28 24 23 21 26 57 69 72 68 64 71 72 69 69 70
306 313 324 329 329 326 320 324 308 264 243 221 230 253 241 266 282 216 258 238 189 168 179 218 193 231 215 235 209 233 235 223 209 173 132 140 122 66 39 33 30 31 27 25 24 31 96 85 78 77 67 81 80 74
306 309 326 333 330 327 332 330 290 244 238 228 242 244 258 285 284 313 298 213 178 170 252 182 223 163 103 229 229 177 213 162 138 146 141 146 206 210 35 26 30 28 25 21 22 25 28 92 98 92 98 102 83 82
291 306 325 333 329 325 316 317 255 249 250 242 248 280 238 263 286 287 240 192 177 203 209 246 149 210 236 231 221 162 173 148 160 154 175 206 240 226 215 75 24 20 21 19 15 19 28 42 72 101 104 112 108 75
288 305 323 333 332 317 283 252 234 264 249 259 262 267 262 268 262 244 223 205 201 196 181 205 235 236 229 233 193 159 165 174 178 188 211 245 261 232 204 202 293 6 13 11 14 12 4 21 39 80 77 50 360 15
292 299 307 314 316 269 271 254 250 259 265 275 257 266 263 271 244 232 203 194 195 197 212 222 237 238 215 175 172 163 162 161 167 180 196 212 246 197 198 215 288 330 348 351 355 7 38 63 40 8 304 341 342 353
287 301 311 313 283 224 250 242 245 251 279 263 274 268 274 251 245 234 214 195 198 228 227 223 197 166 149 152 156 160 163 164 175 243 1 240 190 198 204 216 282 324 343 349 354 19 48 59 57 54 46 11 350 353
275 307 309 292 236 248 259 232 236 283 266 267 274 257 258 257 249 219 185 201 244 239 230 196 180 168 160 157 160 159 169 186 206 243 279 208 187 199 214 230 264 321 338 342 351 53 72 37 30 22 25 28 22 335
283 302 275 221 231 237 260 245 243 228 239 221 229 243 222 221 195 174 233 232 252 217 192 177 177 171 163 164 171 183 194 201 212 234 220 202 201 194 197 203 239 307 331 334 14 140 358 5 358 3 349 350 340 334
275 235 227 230 209 246 244 246 257 267 239 240 228 268 226 218 195 235 257 241 193 175 173 175 174 171 172 182 190 199 204 211 220 206 190 187 200 203 201 214 227 296 324 183 148 144 319 318 349 344 347 358 359 354
205 216 203 237 221 234 234 244 235 238 250 256 259 257 172 198 234 239 262 185 182 181 176 175 180 187 191 200 206 206 200 200 216 210 204 196 205 192 195 204 218 232 212 188 197 254 288 327 331 333 338 343 344 338
195 207 199 208 203 207 244 306 320 345 312 264 221 151 180 218 231 241 214 183 189 185 184 186 188 195 207 209 204 206 214 207 207 206 203 197 200 202 213 221 224 230 209 199 208 221 265 292 306 315 318 322 328 334
218 221 214 219 224 193 31 276 256 268 277 251 221 175 216 235 236 118 234 227 177 180 190 191 193 194 203 202 199 194 191 183 183 201 194 183 191 201 218 230 223 219 202 188 201 235 279 291 290 298 305 311 316 319
227 228 210 187 191 178 181 240 270 250 237 247 235 239 269 272 12 31 302 227 170 167 175 185 187 190 190 180 173 166 161 171 181 162 153 166 180 187 193 191 190 206 183 193 212 254 293 296 286 299 308 313 316 319
223 211 194 193 180 206 216 209 233 235 249 245 264 270 280 267 306 329 290 182 186 172 173 174 171 169 160 156 154 156 167 169 170 173 182 191 199 209 201 190 199 190 199 222 258 245 270 267 275 295 308 314 319 321
224 195 205 196 205 222 222 207 235 245 246 260 267 274 279 285 288 287 222 208 195 191 193 191 187 181 179 174 170 173 177 178 185 194 204 213 217 211 195 191 192 198 209 218 235 258 291 309 313 313 313 314 318 321
208 189 219 226 242 250 255 249 253 255 247 253 257 261 278 291 292 254 218 214 202 189 183 182 181 187 190 190 187 181 184 190 195 196 187 181 181 185 182 185 188 193 202 214 232 251 277 299 310 315 316 317 319 320
209 209 206 230 250 263 237 224 247 237 224 225 242 240 248 255 252 223 213 202 191 195 196 190 192 195 192 196 194 188 187 191 196 210 212 179 176 176 175 176 183 191 200 218 235 264 291 306 315 318 318 318 320 323
206 204 209 255 262 236 199 192 256 254 219 223 235 239 248 260 243 203 208 187 182 190 193 192 185 184 188 180 180 184 173 188 189 201 207 205 194 171 168 174 184 189 203 214 254 292 309 318 321 322 321 321 320 321
Wind_Speed_850mb
42 42 39 42 43 37 36 37 38 36 30 26 20 15 14 18 17 18 15 15 7 6 6 2 0 3 2 8 8 6 6 7 9 8 6 6 7 6 6 8 4 12 14 15 20 18 19 29 9 7 10 18 30 31
40 39 37 38 41 35 34 36 36 33 27 23 21 17 11 15 16 18 12 17 9 2 6 3 6 8 4 8 14 10 8 8 3 7 2 5 7 4 8 8 10 12 8 13 9 9 10 17 20 7 11 17 25 34
44 38 35 34 36 35 33 33 33 31 26 22 22 20 18 17 15 15 10 23 8 3 5 2 5 4 4 8 6 11 8 5 4 3 11 6 4 8 8 7 9 7 6 12 9 14 6 5 6 12 19 21 26 29
50 39 34 32 33 34 33 33 32 28 24 21 22 21 21 19 19 14 7 19 13 4 9 12 6 7 8 4 4 6 8 8 4 4 5 4 6 4 6 11 13 14 6 10 19 19 16 8 5 21 23 21 29 29
47 45 35 31 29 32 34 32 29 25 22 19 20 22 23 26 29 15 5 12 18 4 8 10 6 12 12 2 5 11 7 5 6 3 5 5 6 8 13 11 15 15 16 16 15 13 12 19 20 31 31 27 30 34
42 45 39 32 29 28 31 32 30 25 20 15 19 22 24 26 29 4 2 9 21 8 3 4 6 11 14 6 8 10 8 3 5 7 7 3 2 8 8 11 9 12 17 26 30 28 28 36 37 34 24 31 30 31
44 41 43 37 31 29 28 30 32 29 17 20 19 19 20 18 12 5 5 7 19 8 2 2 8 5 5 3 6 8 7 3 6 7 6 9 4 6 7 17 13 19 27 34 37 36 41 34 31 19 28 29 28 26
44 47 38 42 37 32 30 28 31 33 28 21 23 23 20 11 6 9 16 14 12 3 1 3 0 1 9 5 4 2 3 4 6 6 4 10 9 5 7 13 36 42 46 50 52 48 51 44 41 40 31 27 26 24
40 45 43 44 39 37 34 31 28 32 32 25 27 20 6 4 5 13 17 6 5 4 2 2 3 2 2 4 3 2 2 3 3 10 7 13 4 2 21 49 61 64 42 44 41 41 39 43 42 37 32 27 24 22
37 43 47 49 48 41 35 30 23 31 30 18 15 7 5 8 25 8 3 2 3 0 1 3 9 5 7 2 3 1 3 5 4 2 2 3 4 23 40 46 49 60 60 51 55 53 54 53 45 40 34 26 23 17
37 40 44 50 52 42 23 14 21 29 24 8 5 5 15 20 7 2 3 3 1 4 10 4 3 5 9 5 4 1 4 5 3 5 2 3 5 22 24 30 45 68 61 13 41 46 38 38 34 34 32 21 19 13
38 42 44 48 43 23 12 16 24 28 18 14 12 14 10 4 5 6 4 3 5 1 6 4 4 4 10 9 7 11 4 5 5 11 6 1 8 28 20 35 22 51 71 74 61 35 17 10 19 25 23 18 21 21
39 42 44 42 33 20 19 30 36 35 31 11 3 4 6 7 5 5 6 3 5 12 12 10 7 9 9 12 7 9 10 2 3 6 2 5 18 26 26 19 27 20 40 53 54 59 58 55 42 40 36 24 30 29
39 43 43 42 34 26 35 45 42 27 10 5 7 6 9 7 9 7 1 5 8 5 8 9 5 8 4 9 1 6 3 6 4 3 4 10 17 23 23 25 32 34 25 24 41 46 43 48 61 57 48 45 50 50
38 41 42 30 23 32 47 44 36 13 7 8 8 8 13 15 11 14 7 6 8 10 11 7 7 8 6 4 5 2 5 4 2 3 2 13 8 15 21 23 25 28 28 29 21 28 36 29 43 40 40 28 45 47
35 38 30 37 40 44 38 36 20 7 7 8 12 11 17 13 15 5 12 14 14 16 9 6 4 5 7 3 7 5 2 5 6 5 8 10 3 3 10 16 21 24 28 27 25 21 15 24 25 23 33 39 25 32
32 22 30 38 41 44 29 21 9 7 8 9 13 23 28 24 19 14 8 8 21 16 5 4 6 2 3 6 3 6 6 6 12 11 10 5 2 2 1 6 12 15 21 26 26 19 18 10 15 19 25 17 17 22
25 21 31 40 42 32 19 6 6 8 13 19 14 14 19 21 19 14 9 16 18 13 7 2 4 8 5 5 4 6 9 12 10 10 6 4 8 8 4 0 5 10 14 20 20 18 15 10 8 11 12 10 11 10
25 27 34 35 29 17 7 6 8 10 17 17 22 22 20 20 14 14 10 16 17 9 6 7 6 6 5 5 5 13 13 13 15 14 10 10 10 8 8 4 0 5 10 15 17 16 12 7 5 4 5 4 4 6
30 32 33 25 27 7 7 8 10 12 12 6 12 15 13 13 9 8 11 16 18 10 10 7 7 4 5 7 12 18 18 15 13 11 9 7 5 7 8 4 3 6 12 17 15 17 8 5 6 3 3 6 8 7
27 22 25 32 23 18 11 8 11 14 15 12 11 9 9 10 14 13 13 17 19 11 12 13 8 14 13 17 19 21 21 19 12 4 5 2 6 6 6 4 3 7 13 15 13 8 11 10 9 7 6 5 6 6
24 29 30 27 10 8 13 16 15 15 11 18 13 11 12 11 10 8 10 17 11 22 15 14 20 25 24 25 25 26 21 19 11 6 9 7 8 8 6 4 3 7 12 12 7 3 4 6 7 8 8 7 5 4
26 27 12 10 11 9 12 14 14 12 9 5 4 6 6 5 3 8 8 11 9 10 14 19 28 33 26 27 27 26 23 17 10 6 5 8 8 8 7 6 4 5 10 7 2 1 1 4 7 7 9 10 10 10
22 9 7 9 18 8 7 9 12 10 7 9 6 6 2 3 6 8 6 6 8 15 21 29 36 34 26 25 25 22 20 17 11 9 10 9 8 9 9 7 5 5 3 1 3 1 2 5 7 8 9 10 11 11
8 11 10 14 11 9 7 9 15 13 14 14 8 9 5 6 5 6 4 2 11 20 28 34 34 33 26 26 25 23 23 20 15 14 14 9 9 11 11 9 7 5 4 4 3 1 1 2 5 6 8 10 13 14
7 15 18 14 11 10 7 5 10 9 12 6 9 4 7 6 6 5 3 5 13 24 32 38 37 32 26 20 21 23 24 23 19 16 13 12 12 12 11 10 10 8 8 9 7 4 4 5 7 8 10 13 17 17
9 14 13 15 7 4 1 9 24 18 13 7 5 9 6 6 4 1 1 4 9 17 31 34 31 25 18 18 17 18 19 21 19 12 12 11 12 11 10 11 12 10 11 9 8 6 7 10 11 11 13 15 17 21
17 10 14 17 11 11 4 3 10 10 9 7 4 5 4 3 5 4 2 5 14 22 27 28 25 20 16 18 21 22 23 22 20 15 13 13 14 11 9 8 13 21 13 10 7 6 7 9 9 11 13 18 23 27
14 17 18 15 8 13 18 17 14 21 12 8 4 5 4 4 3 7 3 12 21 20 29 30 27 25 25 26 26 24 23 22 21 21 17 15 16 15 14 13 13 15 13 9 9 7 9 6 8 12 17 24 28 33
13 23 17 17 11 13 20 29 17 16 22 23 23 22 18 16 14 18 11 20 13 16 23 26 28 30 34 34 29 27 26 22 17 12 13 13 14 15 19 17 17 14 13 11 9 10 11 10 17 22 25 29 33 38
7 20 15 20 14 19 22 24 24 22 27 28 25 22 22 18 14 13 14 17 16 18 21 27 27 28 31 33 32 31 28 26 22 17 11 10 14 18 18 18 17 15 12 10 9 9 11 15 19 25 29 34 38 40
14 20 11 9 11 10 8 6 9 15 18 24 23 16 11 10 10 7 11 18 19 20 24 26 28 27 25 24 25 23 21 20 23 24 19 13 14 16 18 17 16 14 11 9 8 8 12 18 26 31 35 35 37 42
14 16 15 9 11 11 15 12 9 8 15 16 16 17 16 12 5 8 12 16 15 15 19 25 24 19 28 23 21 22 22 23 16 16 20 14 11 17 17 15 14 13 10 7 7 11 17 23 30 33 35 39 42 46
Wind_Direction_850mb
0 0 5 6 5 10 13 16 18 18 26 28 24 27 28 31 39 58 36 42 55 5 65 160 93 357 24 26 40 343 129 352 291 243 229 197 273 140 262 51 251 204 211 205 240 235 228 6 57 344 7 337 331 333
359 359 0 6 5 6 8 11 15 14 13 17 18 19 26 33 33 39 18 7 19 39 12 234 232 248 279 343 357 73 90 114 325 277 342 274 208 191 337 220 176 244 309 344 328 56 55 74 92 52 2 342 334 331
359 357 355 1 2 4 3 5 12 13 9 13 23 31 33 29 36 35 17 16 15 342 153 159 66 329 331 263 256 318 80 83 100 331 333 336 306 315 257 234 325 190 291 270 324 129 44 334 102 31 0 345 341 343
359 355 352 353 357 359 357 358 4 9 14 19 26 29 26 24 10 6 11 12 16 311 295 95 51 29 1 57 174 183 78 79 78 265 269 331 309 6 306 335 291 352 331 281 271 275 311 232 38 347 345 340 342 346
357 356 350 348 349 355 356 351 355 4 14 18 15 16 15 9 1 354 14 15 25 43 341 94 107 31 22 145 129 173 173 11 0 261 248 38 331 284 249 280 261 242 277 270 276 41 326 306 317 322 322 330 332 332
349 356 353 346 342 343 351 351 346 349 358 358 360 358 354 357 357 28 301 342 8 17 261 195 103 41 30 86 125 155 186 262 298 312 349 331 334 308 293 293 336 291 279 278 283 291 285 283 292 299 296 318 323 329
344 349 356 350 339 336 336 345 345 341 326 341 340 338 333 336 359 20 3 322 1 49 323 160 124 19 18 242 167 167 187 212 309 321 284 308 324 274 266 263 305 280 276 276 274 277 275 272 270 270 291 303 315 314
342 347 348 354 345 333 330 328 338 339 330 323 336 328 321 308 315 10 336 344 7 18 31 134 125 79 8 330 179 275 249 242 213 273 242 314 303 285 262 293 315 301 291 279 268 263 263 267 267 269 277 289 302 302
337 340 343 341 342 334 324 322 321 334 335 316 328 328 326 7 343 317 328 4 26 114 299 329 71 55 56 356 10 14 348 295 294 22 21 342 1 302 310 311 301 295 274 269 268 264 262 254 255 253 264 268 278 291
327 328 334 339 334 327 319 315 311 329 335 321 329 350 314 289 328 329 31 19 356 100 108 280 111 109 166 177 190 190 26 12 29 13 283 10 300 266 299 324 356 348 312 280 253 250 247 250 245 245 251 249 263 281
329 332 333 334 333 324 314 324 325 330 334 332 301 273 281 317 349 331 295 275 265 248 190 232 280 102 179 168 133 145 169 180 196 124 282 352 284 341 350 346 12 3 24 285 247 234 238 236 236 240 239 247 258 232
322 326 331 334 341 343 338 340 340 336 322 284 272 281 292 272 256 256 222 185 217 238 199 253 131 184 161 178 156 187 265 190 216 153 232 328 320 350 350 356 19 26 28 35 51 65 91 194 236 226 240 236 180 172
316 322 328 327 330 334 327 326 322 322 325 320 269 249 219 202 284 254 307 108 308 180 198 195 177 184 170 218 205 193 230 98 166 217 4 32 15 359 2 3 17 29 49 40 43 50 51 71 91 99 83 81 139 122
309 315 321 317 306 301 322 331 323 307 300 220 229 252 229 186 234 215 156 335 310 246 186 196 158 227 180 206 271 247 81 258 265 269 53 60 39 20 20 21 22 26 33 60 54 53 53 55 65 69 73 73 77 89
307 313 322 325 313 302 321 324 319 276 231 228 219 242 221 250 264 265 255 213 201 175 168 173 192 236 166 204 222 232 219 261 205 262 107 93 54 32 31 28 24 23 21 26 57 69 72 68 64 71 72 69 69 70
306 313 324 329 329 326 320 324 308 264 243 221 230 253 241 266 282 216 258 238 189 168 179 218 193 231 215 235 209 233 235 223 209 173 132 140 122 66 39 33 30 31 27 25 24 31 96 85 78 77 67 81 80 74
306 309 326 333 330 327 332 330 290 244 238 228 242 244 258 285 284 313 298 213 178 170 252 182 223 163 103 229 229 177 213 162 138 146 141 146 206 210 35 26 30 28 25 21 22 25 28 92 98 92 98 102 83 82
291 306 325 333 329 325 316 317 255 249 250 242 248 280 238 263 286 287 240 192 177 203 209 246 149 210 236 231 221 162 173 148 160 154 175 206 240 226 215 75 24 20 21 19 15 19 28 42 72 101 104 112 108 75
288 305 323 333 332 317 283 252 234 264 249 259 262 267 262 268 262 244 223 205 201 196 181 205 235 236 229 233 193 159 165 174 178 188 211 245 261 232 204 202 293 6 13 11 14 12 4 21 39 80 77 50 360 15
292 299 307 314 316 269 271 254 250 259 265 275 257 266 263 271 244 232 203 194 195 197 212 222 237 238 215 175 172 163 162 161 167 180 196 212 246 197 198 215 288 330 348 351 355 7 38 63 40 8 304 341 342 353
287 301 311 313 283 224 250 242 245 251 279 263 274 268 274 251 245 234 214 195 198 228 227 223 197 166 149 152 156 160 163 164 175 243 1 240 190 198 204 216 282 324 343 349 354 19 48 59 57 54 46 11 350 353
275 307 309 292 236 248 259 232 236 283 266 267 274 257 258 257 249 219 185 201 244 239 230 196 180 168 160 157 160 159 169 186 206 243 279 208 187 199 214 230 264 321 338 342 351 53 72 37 30 22 25 28 22 335
283 302 275 221 231 237 260 245 243 228 239 221 229 243 222 221 195 174 233 232 252 217 192 177 177 171 163 164 171 183 194 201 212 234 220 202 201 194 197 203 239 307 331 334 14 140 358 5 358 3 349 350 340 334
275 235 227 230 209 246 244 246 257 267 239 240 228 268 226 218 195 235 257 241 193 175 173 175 174 171 172 182 190 199 204 211 220 206 190 187 200 203 201 214 227 296 324 183 148 144 319 318 349 344 347 358 359 354
205 216 203 237 221 234 234 244 235 238 250 256 259 257 172 198 234 239 262 185 182 181 176 175 180 187 191 200 206 206 200 200 216 210 204 196 205 192 195 204 218 232 212 188 197 254 288 327 331 333 338 343 344 338
195 207 199 208 203 207 244 306 320 345 312 264 221 151 180 218 231 241 214 183 189 185 184 186 188 195 207 209 204 206 214 207 207 206 203 197 200 202 213 221 224 230 209 199 208 221 265 292 306 315 318 322 328 334
218 221 214 219 224 193 31 276 256 268 277 251 221 175 216 235 236 118 234 227 177 180 190 191 193 194 203 202 199 194 191 183 183 201 194 183 191 201 218 230 223 219 202 188 201 235 279 291 290 298 305 311 316 319
227 228 210 187 191 178 181 240 270 250 237 247 235 239 269 272 12 31 302 227 170 167 175 185 187 190 190 180 173 166 161 171 181 162 153 166 180 187 193 191 190 206 183 193 212 254 293 296 286 299 308 313 316 319
223 211 194 193 180 206 216 209 233 235 249 245 264 270 280 267 306 329 290 182 186 172 173 174 171 169 160 156 154 156 167 169 170 173 182 191 199 209 201 190 199 190 199 222 258 245 270 267 275 295 308 314 319 321
224 195 205 196 205 222 222 207 235 245 246 260 267 274 279 285 288 287 222 208 195 191 193 191 187 181 179 174 170 173 177 178 185 194 204 213 217 211 195 191 192 198 209 218 235 258 291 309 313 313 313 314 318 321
208 189 219 226 242 250 255 249 253 255 247 253 257 261 278 291 292 254 218 214 202 189 183 182 181 187 190 190 187 181 184 190 195 196 187 181 181 185 182 185 188 193 202 214 232 251 277 299 310 315 316 317 319 320
209 209 206 230 250 263 237 224 247 237 224 225 242 240 248 255 252 223 213 202 191 195 196 190 192 195 192 196 194 188 187 191 196 210 212 179 176 176 175 176 183 191 200 218 235 264 291 306 315 318 318 318 320 323
206 204 209 255 262 236 199 192 256 254 219 223 235 239 248 260 243 203 208 187 182 190 193 192 185 184 188 180 180 184 173 188 189 201 207 205 194 171 168 174 184 189 203 214 254 292 309 318 321 322 321 321 320 321